sat.trackr.live / text

‹ back to catalog

LEMUR-2-STAS-GORBUK

NORAD 66686 · 2025-276W

PAYLOAD ACTIVE UNKNOWN

§ Identity

Operator
Country
US
Launch date
2025-11-28
Launch site
AFWTR
Launch vehicle
Mass (kg)
RCS (m²)

Purposes: earth_obs

External: N2YO · Heavens-Above · Gunter

§ Orbital elements

Epoch: 2026-05-25T03:28:52.743360Z

Period
94.79 min
Inclination
97.4252°
Eccentricity
0.0006922
Mean motion
15.19087663 rev/d
Perigee alt
503.8 km
Apogee alt
513.4 km
Semi-major
6,886.7 km
B*
2.6071e-4
RAAN
219.0641°
Arg perigee
82.7641°
Mean anomaly
277.4380°
Rev number
2,691

§ Raw data

LEMUR-2-STAS-GORBUK1 66686U 25276W   26145.14505490  .00005405  00000+0  26071-3 0  99922 66686  97.4252 219.0641 0006922  82.7641 277.4380 15.19087663 26918

JSON: /api/v1/satellites/66686 · /tle

For live sub-satellite position, see the globe view (requires WebGL).

§ Visibility from observer

Set your observer location to see the next 7 days of passes ≥ 10°. The values pass through the URL so the page stays shareable.

No JS? Fill the form by hand. The geolocation button needs JavaScript.